"Pseudo-MPEC" for P11VUig

Created 2024 Jul 19 13:22:05 UT using Find_Orb

Click here for an explanation of pseudo-MPECs

 
 Astrometry: 
     P11VUig* C2024 06 29.51203121 17 55.783-31 19 19.86   ~6TE7 20.95wXNEOCPF51
     P11VUig  C2024 06 29.53272121 17 56.375-31 19 22.31   ~6TE7 21.66wXNEOCPF51
     P11VUig  C2024 06 29.54305821 17 56.670-31 19 23.75   ~6TE7 21.31wXNEOCPF51

Station data:
(F51) Pan-STARRS 1, Haleakala  (N20.707234 W156.255910)  US/Hawaii.
   Observers J. Bulger, T. Lowe, A. Schultz, M. Willman. Measurers K.
   Chambers, S. Chastel, T. de Boer, L. Denneau, J. Fairlamb, H. Flewelling,
   M. Huber, C.-C. Lin, E. Magnier, Y. Ramanjooloo, R. Wainscoat, R. Weryk.
   1.8-m Ritchey-Chrétien + CCD.

Orbital elements:  P11VUig
   Perihelion 2024 Sep 29.10163 +/- 50.5 TT =  2:26:21 (JD 2460582.60163)
Epoch 2024 Jun 30.0 TT = JDT 2460491.5   Earth MOID: 0.0045   Ma: 0.0758
M 324.13257772 +/- 31               (J2000 ecliptic)             AutoNEOCP
n   0.39370778 +/- 0.358            Peri.   84.54370 +/- 90
a   1.84368496 +/- 1.12             Node   316.80041 +/- 45
e   0.6388788 +/- 0.256             Incl.   10.80678 +/- 10
P   2.503/914.366d         H 20.70  G  0.15   U 12.1  SR
q 0.66579355 +/- 0.585    Q 3.02157638 +/- 61.8
From 3 observations 2024 June 29 (44.7 min); mean residual 0".06
Residuals in arcseconds: 
240629 F51  .00   .04-    240629 F51  .00   .12+    240629 F51  .00   .08-    

Ephemerides (geocentric):
Date (UTC) HH   RA             Dec           delta  r     elong  mag " sig PA
---- --------  ------------   ------------  ------ ------ -----  --- --------
2024 07 19 13  21 23 05.885   -32 05 20.99  .25063 1.2515 157.6 19.1  64d 113
2024 07 19 14  21 23 05.351   -32 05 26.36  .25014 1.2510 157.6 19.1  64d 113
2024 07 19 15  21 23 04.810   -32 05 31.72  .24965 1.2506 157.6 19.1  64d 113
2024 07 19 16  21 23 04.262   -32 05 37.07  .24916 1.2502 157.6 19.1  64d 113
2024 07 19 17  21 23 03.707   -32 05 42.40  .24867 1.2497 157.7 19.1  64d 113
2024 07 19 18  21 23 03.145   -32 05 47.73  .24818 1.2493 157.7 19.1  65d 113
2024 07 19 19  21 23 02.575   -32 05 53.04  .24769 1.2489 157.7 19.1  65d 113
2024 07 19 20  21 23 01.998   -32 05 58.35  .24720 1.2485 157.8 19.1  65d 113
2024 07 19 21  21 23 01.413   -32 06 03.64  .24672 1.2480 157.8 19.1  65d 113
2024 07 19 22  21 23 00.821   -32 06 08.93  .24623 1.2476 157.8 19.1  65d 113
2024 07 19 23  21 23 00.222   -32 06 14.20  .24574 1.2472 157.8 19.1  65d 113
2024 07 20 00  21 22 59.615   -32 06 19.46  .24525 1.2467 157.9 19.1  65d 113
2024 07 20 01  21 22 59.001   -32 06 24.71  .24476 1.2463 157.9 19.1  65d 113
2024 07 20 02  21 22 58.380   -32 06 29.95  .24427 1.2459 157.9 19.0  65d 113
2024 07 20 03  21 22 57.751   -32 06 35.18  .24379 1.2454 158.0 19.0  65d 113
2024 07 20 04  21 22 57.114   -32 06 40.40  .24330 1.2450 158.0 19.0  65d 113
2024 07 20 05  21 22 56.470   -32 06 45.61  .24281 1.2446 158.0 19.0  65d 113
2024 07 20 06  21 22 55.818   -32 06 50.80  .24233 1.2442 158.0 19.0  65d 113
2024 07 20 07  21 22 55.159   -32 06 55.99  .24184 1.2437 158.1 19.0  65d 113
2024 07 20 08  21 22 54.492   -32 07 01.16  .24135 1.2433 158.1 19.0  65d 113
2024 07 20 09  21 22 53.817   -32 07 06.32  .24086 1.2429 158.1 19.0  65d 113
2024 07 20 10  21 22 53.134   -32 07 11.47  .24038 1.2424 158.2 19.0  65d 113
2024 07 20 11  21 22 52.444   -32 07 16.61  .23989 1.2420 158.2 19.0  65d 113
2024 07 20 12  21 22 51.746   -32 07 21.73  .23941 1.2416 158.2 19.0  65d 113
2024 07 20 13  21 22 51.040   -32 07 26.84  .23892 1.2411 158.2 19.0  65d 113
2024 07 20 14  21 22 50.326   -32 07 31.95  .23843 1.2407 158.3 19.0  65d 113
2024 07 20 15  21 22 49.605   -32 07 37.03  .23795 1.2403 158.3 19.0  66d 113
2024 07 20 16  21 22 48.875   -32 07 42.11  .23746 1.2399 158.3 19.0  66d 113
2024 07 20 17  21 22 48.138   -32 07 47.18  .23698 1.2394 158.4 19.0  66d 113
2024 07 20 18  21 22 47.392   -32 07 52.23  .23649 1.2390 158.4 19.0  66d 113
2024 07 20 19  21 22 46.639   -32 07 57.27  .23600 1.2386 158.4 19.0  66d 113
2024 07 20 20  21 22 45.877   -32 08 02.29  .23552 1.2381 158.4 18.9  66d 113
2024 07 20 21  21 22 45.108   -32 08 07.31  .23503 1.2377 158.5 18.9  66d 113
2024 07 20 22  21 22 44.330   -32 08 12.31  .23455 1.2373 158.5 18.9  66d 113
2024 07 20 23  21 22 43.544   -32 08 17.30  .23406 1.2368 158.5 18.9  66d 113
2024 07 21 00  21 22 42.750   -32 08 22.27  .23358 1.2364 158.5 18.9  66d 113
2024 07 21 01  21 22 41.948   -32 08 27.24  .23310 1.2360 158.6 18.9  66d 113
2024 07 21 02  21 22 41.137   -32 08 32.19  .23261 1.2355 158.6 18.9  66d 113
2024 07 21 03  21 22 40.318   -32 08 37.12  .23213 1.2351 158.6 18.9  66d 113
2024 07 21 04  21 22 39.491   -32 08 42.04  .23164 1.2347 158.7 18.9  66d 113
2024 07 21 05  21 22 38.655   -32 08 46.95  .23116 1.2343 158.7 18.9  67d 113
2024 07 21 06  21 22 37.811   -32 08 51.85  .23068 1.2338 158.7 18.9  67d 113
2024 07 21 07  21 22 36.959   -32 08 56.73  .23019 1.2334 158.7 18.9  67d 113
2024 07 21 08  21 22 36.098   -32 09 01.60  .22971 1.2330 158.8 18.9  67d 113
2024 07 21 09  21 22 35.228   -32 09 06.45  .22922 1.2325 158.8 18.9  67d 113
2024 07 21 10  21 22 34.350   -32 09 11.29  .22874 1.2321 158.8 18.9  67d 113
2024 07 21 11  21 22 33.464   -32 09 16.12  .22826 1.2317 158.9 18.9  67d 113
2024 07 21 12  21 22 32.569   -32 09 20.93  .22778 1.2312 158.9 18.9  67d 113